When you browse on this site, cookies collect data to enhance your experience and personalize the content and advertising you see.
Visit our Privacy Policy to learn more. By continuing to use the site, you agree to this use of cookies and data.
  • In Czech Republic
  • List of Countries
  • For 7 days
  • Water Temperature
  • Weather Map
  • Weather Widgets
  • user-avatar
    Login

    Hourly Weather Dobele

    Today, 3 June, Wednesday

    Time Temperature Precipitation Wind Pressure Humidity
    00:00 +8°C° 0 mm 2 mps 754 mmHg 78%
    01:00 +7°C° 0 mm 2 mps 754 mmHg 78%
    02:00 +7°C° 0 mm 2 mps 754 mmHg 77%
    03:00 +7°C° 0 mm 2 mps 754 mmHg 77%
    04:00 +8°C° 0 mm 2 mps 753 mmHg 77%
    05:00 +8°C° 0 mm 2 mps 753 mmHg 77%
    06:00 +10°C° 0 mm 2 mps 753 mmHg 73%
    07:00 +11°C° 0 mm 3 mps 753 mmHg 69%
    08:00 +13°C° 0 mm 4 mps 753 mmHg 66%
    09:00 +13°C° 0 mm 4 mps 753 mmHg 67%
    10:00 +13°C° 0 mm 4 mps 753 mmHg 68%
    11:00 +13°C° 0 mm 4 mps 753 mmHg 69%
    12:00 +14°C° 0 mm 3 mps 753 mmHg 70%
    13:00 +14°C° 0 mm 3 mps 752 mmHg 70%
    14:00 +15°C° 0 mm 2 mps 752 mmHg 70%
    15:00 +16°C° 0.1 mm 3 mps 752 mmHg 69%
    16:00 +16°C° 0.1 mm 3 mps 751 mmHg 69%
    17:00 +17°C° 0.1 mm 3 mps 751 mmHg 68%
    18:00 +16°C° 0.1 mm 3 mps 751 mmHg 73%
    19:00 +14°C° 0.1 mm 3 mps 750 mmHg 78%
    20:00 +14°C° 0.1 mm 2 mps 750 mmHg 83%
    21:00 +13°C° 0 mm 2 mps 750 mmHg 87%
    22:00 +12°C° 0 mm 2 mps 750 mmHg 90%
    23:00 +9°C° 0 mm 2 mps 750 mmHg 93%

    Tomorrow, 4 June, Thursday

    Time Temperature Precipitation Wind Pressure Humidity
    00:00 +9°C° 0 mm 2 mps 750 mmHg 94%
    01:00 +9°C° 0 mm 2 mps 749 mmHg 95%
    02:00 +8°C° 0 mm 2 mps 749 mmHg 96%
    03:00 +10°C° 0 mm 1 mps 749 mmHg 96%
    04:00 +10°C° 0 mm 1 mps 749 mmHg 97%
    05:00 +10°C° 0 mm 1 mps 748 mmHg 98%
    06:00 +10°C° 0 mm 2 mps 748 mmHg 93%
    07:00 +13°C° 0 mm 2 mps 748 mmHg 88%
    08:00 +14°C° 0 mm 2 mps 748 mmHg 83%
    09:00 +15°C° 0.1 mm 2 mps 747 mmHg 79%
    10:00 +16°C° 0.1 mm 2 mps 747 mmHg 74%
    11:00 +17°C° 0.1 mm 3 mps 746 mmHg 69%
    12:00 +18°C° 0.6 mm 2 mps 746 mmHg 69%
    13:00 +18°C° 0.6 mm 2 mps 746 mmHg 68%
    14:00 +19°C° 0.6 mm 2 mps 746 mmHg 68%
    15:00 +18°C° 0.4 mm 2 mps 745 mmHg 70%
    16:00 +18°C° 0.4 mm 2 mps 745 mmHg 72%
    17:00 +18°C° 0.4 mm 3 mps 745 mmHg 73%
    18:00 +17°C° 0.2 mm 2 mps 745 mmHg 79%
    19:00 +15°C° 0.2 mm 2 mps 744 mmHg 84%
    20:00 +14°C° 0.2 mm 2 mps 744 mmHg 89%
    21:00 +13°C° 0 mm 2 mps 744 mmHg 91%
    22:00 +12°C° 0 mm 1 mps 744 mmHg 94%
    23:00 +11°C° 0 mm 1 mps 744 mmHg 97%

    Day after tomorrow, 5 June, Friday

    Time Temperature Precipitation Wind Pressure Humidity
    00:00 +10°C° 0 mm 1 mps 744 mmHg 97%
    01:00 +10°C° 0 mm 1 mps 744 mmHg 97%
    02:00 +9°C° 0 mm 0 mps 744 mmHg 96%
    03:00 +9°C° 0 mm 0 mps 744 mmHg 96%
    04:00 +9°C° 0 mm 0 mps 744 mmHg 96%
    05:00 +9°C° 0 mm 0 mps 744 mmHg 96%
    06:00 +12°C° 0 mm 1 mps 744 mmHg 91%
    07:00 +14°C° 0 mm 1 mps 744 mmHg 85%
    08:00 +16°C° 0 mm 2 mps 744 mmHg 80%
    09:00 +17°C° 0 mm 3 mps 744 mmHg 73%
    10:00 +19°C° 0 mm 3 mps 744 mmHg 67%
    11:00 +20°C° 0 mm 4 mps 744 mmHg 60%
    12:00 +20°C° 0 mm 4 mps 744 mmHg 58%
    13:00 +21°C° 0 mm 4 mps 744 mmHg 56%
    14:00 +22°C° 0 mm 5 mps 744 mmHg 54%
    15:00 +22°C° 0 mm 5 mps 743 mmHg 55%
    16:00 +22°C° 0 mm 5 mps 743 mmHg 55%
    17:00 +22°C° 0 mm 5 mps 743 mmHg 56%
    18:00 +20°C° 0 mm 4 mps 743 mmHg 62%
    19:00 +19°C° 0 mm 4 mps 742 mmHg 67%
    20:00 +18°C° 0 mm 4 mps 742 mmHg 72%
    21:00 +17°C° 0 mm 5 mps 742 mmHg 72%
    22:00 +16°C° 0 mm 5 mps 742 mmHg 72%
    23:00 +16°C° 0 mm 5 mps 742 mmHg 72%

    6 June, Saturday

    Time Temperature Precipitation Wind Pressure Humidity
    00:00 +16°C° 0.1 mm 5 mps 742 mmHg 79%
    01:00 +16°C° 0.1 mm 5 mps 742 mmHg 86%
    02:00 +17°C° 0.1 mm 4 mps 742 mmHg 93%
    03:00 +15°C° 0.6 mm 4 mps 742 mmHg 93%
    04:00 +14°C° 0.6 mm 4 mps 742 mmHg 94%
    05:00 +12°C° 0.6 mm 4 mps 742 mmHg 95%
    06:00 +12°C° 2 mm 4 mps 742 mmHg 95%
    07:00 +11°C° 2 mm 3 mps 742 mmHg 95%
    08:00 +10°C° 2 mm 3 mps 743 mmHg 95%
    09:00 +12°C° 0.1 mm 3 mps 743 mmHg 86%
    10:00 +14°C° 0.1 mm 4 mps 744 mmHg 78%
    11:00 +17°C° 0.1 mm 4 mps 744 mmHg 69%
    12:00 +15°C° 1 mm 5 mps 744 mmHg 75%
    13:00 +15°C° 1 mm 6 mps 745 mmHg 80%
    14:00 +14°C° 1 mm 7 mps 745 mmHg 86%
    15:00 +14°C° 0.1 mm 7 mps 746 mmHg 77%
    16:00 +15°C° 0.1 mm 6 mps 747 mmHg 69%
    17:00 +16°C° 0.1 mm 6 mps 747 mmHg 61%
    18:00 +15°C° 0 mm 5 mps 748 mmHg 65%
    19:00 +14°C° 0 mm 4 mps 748 mmHg 70%
    20:00 +14°C° 0 mm 2 mps 749 mmHg 75%
    21:00 +12°C° 0 mm 3 mps 749 mmHg 77%
    22:00 +11°C° 0 mm 3 mps 750 mmHg 80%
    23:00 +11°C° 0 mm 4 mps 751 mmHg 82%

    7 June, Sunday

    Time Temperature Precipitation Wind Pressure Humidity
    00:00 +10°C° 0 mm 4 mps 751 mmHg 83%
    01:00 +10°C° 0 mm 3 mps 751 mmHg 83%
    02:00 +10°C° 0 mm 3 mps 751 mmHg 84%
    03:00 +9°C° 0 mm 3 mps 752 mmHg 86%
    04:00 +9°C° 0 mm 3 mps 752 mmHg 88%
    05:00 +9°C° 0 mm 2 mps 753 mmHg 90%
    06:00 +11°C° 0 mm 3 mps 753 mmHg 85%
    07:00 +13°C° 0 mm 3 mps 753 mmHg 79%
    08:00 +16°C° 0 mm 3 mps 753 mmHg 74%
    09:00 +16°C° 0.2 mm 3 mps 754 mmHg 80%
    10:00 +16°C° 0.2 mm 3 mps 754 mmHg 86%
    11:00 +14°C° 0.2 mm 3 mps 754 mmHg 92%
    12:00 +17°C° 0.3 mm 3 mps 754 mmHg 88%
    13:00 +18°C° 0.3 mm 3 mps 754 mmHg 85%
    14:00 +20°C° 0.3 mm 3 mps 754 mmHg 81%
    15:00 +20°C° 1 mm 3 mps 754 mmHg 83%
    16:00 +20°C° 1 mm 2 mps 753 mmHg 85%
    17:00 +20°C° 1 mm 2 mps 753 mmHg 87%
    18:00 +20°C° 0.6 mm 2 mps 753 mmHg 88%
    19:00 +20°C° 0.6 mm 1 mps 752 mmHg 89%
    20:00 +19°C° 0.6 mm 1 mps 752 mmHg 90%
    21:00 +18°C° 0.3 mm 1 mps 752 mmHg 91%
    22:00 +16°C° 0.3 mm 1 mps 752 mmHg 93%
    23:00 +15°C° 0.3 mm 1 mps 752 mmHg 95%

    8 June, Monday

    Time Temperature Precipitation Wind Pressure Humidity
    00:00 +15°C° 0.1 mm 1 mps 752 mmHg 95%
    01:00 +15°C° 0.1 mm 1 mps 752 mmHg 96%
    02:00 +14°C° 0.1 mm 1 mps 752 mmHg 96%
    03:00 +14°C° 0.2 mm 2 mps 752 mmHg 97%
    04:00 +14°C° 0.2 mm 2 mps 752 mmHg 97%
    05:00 +13°C° 0.2 mm 3 mps 753 mmHg 98%
    06:00 +14°C° 0.1 mm 3 mps 753 mmHg 97%
    07:00 +14°C° 0.1 mm 3 mps 753 mmHg 96%
    08:00 +16°C° 0.1 mm 2 mps 754 mmHg 95%
    09:00 +17°C° 0 mm 2 mps 754 mmHg 90%
    10:00 +18°C° 0 mm 2 mps 754 mmHg 85%
    11:00 +19°C° 0 mm 2 mps 755 mmHg 80%
    12:00 +20°C° 0 mm 2 mps 755 mmHg 76%
    13:00 +21°C° 0 mm 2 mps 755 mmHg 72%
    14:00 +23°C° 0 mm 2 mps 755 mmHg 68%
    15:00 +21°C° 0 mm 3 mps 755 mmHg 68%
    16:00 +21°C° 0 mm 3 mps 755 mmHg 68%
    17:00 +21°C° 0 mm 4 mps 755 mmHg 68%
    18:00 +19°C° 0 mm 4 mps 755 mmHg 72%
    19:00 +18°C° 0 mm 3 mps 755 mmHg 76%
    20:00 +16°C° 0 mm 3 mps 755 mmHg 80%
    21:00 +14°C° 0 mm 3 mps 755 mmHg 81%
    22:00 +13°C° 0 mm 3 mps 755 mmHg 82%
    23:00 +13°C° 0 mm 3 mps 755 mmHg 83%
    Show more